ONEWEB-0704, 61609

Orbit data source: Space-Track

ONEWEB-0704, 61609 is a payload satellite owned by Eut. One Web (UK) in LEO that was launched on Sun, 20 Oct 2024 UTC via an FALCON 9 launch vehicle from the Air Force Western Test Range (AFWTR). Payload-class satellites include a variety of spacecraft equipped with specific instruments for various scientific and technological missions. These include communications satellites like Starlink; space stations such as the ISS; scientific satellites like the Hubble; Earth observation satellites from companies like Planet Labs, Umbra, and HawkEye 360; GPS; miniature CubeSats for education and research; and military/defense satellites.

Loading next visibility...
Identifier
61609, 2024-188R
Orbit
LEO
Country
Flag of UKUK
Related business
Manufacturer
One Web
Mission
Operational Commercial Communications
Bus & Motor
ARROW, Unknown motor
Mass
148 kg wet, ~140 kg dry
Launch date (UTC)
2024-10-20 (1 year ago)
Launch vehicle
FALCON 9
Launch site
Air Force Western Test Range (AFWTR)
Object type
Payload
Rocket body
Debris
Shape & HBR
Trap Box + 2 Pan, 6.7 m
Radar Cross Section
3.464 m², Large (>1 m²)

Expand to show TLE details & history
Last TLE update: 14 hours ago

TLE from 14 hours ago
0 ONEWEB-0704
1 61609U 24188R   25310.79275422 -.00000236  00000-0 -71279-3 0  9996
2 61609  87.8811  80.5524 0002336  79.0918 281.0472 13.10377151 54168
Epoch: 2025-11-06T19:01Z
TLE epoch observation values (Epoch: 2025-11-06T19:01:33.964Z)
Latitude
-0.00004°
Longitude
108.9149°
Altitude
1,224.248 km
Speed
7.242 km/s
True Right ascension
05h 22m 12s
True Declination
0° 00' 00"
Sunlit
Object was in full shadow at epoch
Visualization orbit readout
Latitude
Unknown
Longitude
Unknown
Altitude
Unknown
Speed
Unknown
Apparent Right ascension
Unknown
Apparent Declination
Unknown
Sunlit
N/A
Visualization observer readout
Local Sidereal Time
04:57:18
Azimuth
Unknown
Elevation
Unknown
Doppler factor
Unknown
Orbital elements
Apogee altitude
1,220.595 km
Perigee altitude
1,217.046 km
Semi-major axis
7,596.957 km
Eccentricity
0.00023
Inclination
87.8811°
RAAN
80.5524°
Arg. of periapsis
79.0918°
True anomaly
281.02093°
Mean anomaly
281.0472°
Eccentric anomaly
281.03406°
Mean motion
3.27781 °/min
Orbital period
109.83 mins
BSTAR
-0.00071279
Loading maneuver chart data...
Computing Atmospheric mass density...
Loading historical data...
Loading historical data...
Loading historical data...
Loading historical data...
Loading historical data...
Loading historical data...
Loading historical data...

Documentation

Showing up to 5 results
|